Flag for Slovakia Weather past 2 weeks in Bratislava, Slovakia

61 °F

Passing clouds.

Feels Like: 61 °F
Forecast: 57 / 63 °F
Wind: 8 mph from Southeast

Location: Bratislava Ivanka

Current Time: Oct 6, 2015 at 8:56:15 PM

Latest Report: Oct 6, 2015 at 8:00 PM

Visibility: 5 mi

Pressure: 29.86 "Hg

Humidity: 83%

Dew point: 55 °F

Location of BratislavaLocation

Historic Weather in Bratislava — Graph


Bratislava temperature yesterday

Maximum temperature yesterday: 68 °F (at 2:00 PM)
Minimum temperature yesterday: 54 °F (at 11:00 PM)
Average temperature yesterday: 60 °F

Past Weeks' High & Low Weather Summary

High72 °F (Sep 22, 4:00 PM)100% (Oct 6, 2:30 AM)30.51 "Hg (Oct 6, 2:30 AM)
Low39 °F (Oct 2, 5:00 AM)31% (Sep 22, 4:00 PM)29.71 "Hg (Sep 23, 3:00 AM)
Average57 °F68%30.15 "Hg
* Reported Sep 21 7:00 PM — Oct 6 7:30 PM, Bratislava, Weather by CustomWeather, © 2015

Note: Actual official high and low records may vary slightly from our data, if they occured in-between our weather recording intervals... More about our weather records


Bratislava weather history for previous 24 hours

Time TempWeatherWind HumidityBarometerVisibility
7:30 PM
Tue, Oct 6
61 °FPassing clouds.7 mph88%29.86 "Hg5 mi
7:00 PM61 °FBroken clouds.7 mph88%29.86 "Hg6 mi
6:30 PM63 °FBroken clouds.6 mph83%29.86 "Hg5 mi
6:00 PM63 °FBroken clouds.7 mph83%29.83 "Hg5 mi
5:30 PM63 °FPartly sunny.7 mph83%29.83 "Hg6 mi
5:00 PM63 °FScattered clouds.6 mph77%29.83 "HgN/A
4:30 PM63 °FPassing clouds.9 mph77%29.86 "Hg6 mi
4:00 PM63 °FPassing clouds.9 mph77%29.86 "HgN/A
3:30 PM63 °FPartly sunny.8 mph77%29.86 "Hg5 mi
3:00 PM63 °FBroken clouds.9 mph77%29.86 "Hg5 mi
2:30 PM61 °FBroken clouds.9 mph83%29.86 "Hg4 mi
2:00 PM59 °FFog.9 mph94%29.89 "Hg3 mi
1:30 PM59 °FFog.7 mph94%29.89 "Hg3 mi
1:00 PM57 °FFog.7 mph94%29.92 "Hg1 mi
12:30 PM57 °FFog.8 mph94%29.92 "Hg1 mi
12:00 PM57 °FFog.9 mph94%29.92 "Hg1 mi
11:30 AM55 °FFog.7 mph100%29.92 "Hg1 mi
11:00 AM55 °FFog.8 mph100%29.92 "Hg1 mi
10:30 AM55 °FFog.7 mph100%29.92 "Hg1 mi
10:00 AM55 °FFog.7 mph94%29.92 "Hg0 mi
9:30 AM54 °FDrizzle. Fog.6 mph100%29.92 "Hg1 mi
9:00 AM54 °FDrizzle. Fog.5 mph100%29.92 "Hg0 mi
8:30 AM54 °FDrizzle. Fog.7 mph94%29.92 "Hg0 mi
8:00 AM54 °FDrizzle. Fog.8 mph94%29.92 "Hg0 mi
7:30 AM54 °FDrizzle. Fog.7 mph94%29.92 "Hg0 mi
7:00 AM54 °FDrizzle. Fog.5 mph100%29.92 "Hg0 mi
6:30 AM54 °FDrizzle. Fog.3 mph100%29.92 "Hg0 mi
6:00 AM54 °FFog.7 mph100%29.92 "Hg0 mi
5:30 AM54 °FFog.6 mph100%29.92 "Hg0 mi
5:00 AM54 °FFog.6 mph100%29.92 "Hg0 mi
4:30 AM54 °FFog.6 mph100%29.92 "Hg0 mi
4:00 AM54 °FFog.6 mph100%29.95 "Hg0 mi
3:30 AM52 °FFog.5 mph100%29.95 "Hg0 mi
3:00 AM50 °FPartly cloudy.6 mph94%29.95 "Hg2 mi
2:30 AM50 °FLight fog.No wind100%29.95 "Hg1 mi
2:00 AM52 °FLight fog.5 mph94%29.95 "Hg2 mi
1:30 AM52 °FLight fog.3 mph94%29.95 "Hg2 mi
1:00 AM52 °FLight fog.2 mph88%29.95 "Hg5 mi
12:30 AM52 °FLight fog.5 mph94%29.98 "Hg5 mi
12:00 AM54 °FLight fog.2 mph88%29.98 "HgN/A
11:00 PM
Mon, Oct 5
54 °FLight fog.No wind88%29.98 "HgN/A
10:30 PM55 °FFog.1 mph88%29.98 "HgN/A
10:00 PM57 °FFog.1 mph88%29.98 "HgN/A
9:30 PM57 °FClear.No wind77%29.98 "Hg10 mi
9:00 PM61 °FClear.3 mph83%29.98 "Hg10 mi
8:30 PM59 °FClear.1 mph82%29.98 "Hg10 mi
8:00 PM59 °FClear.1 mph77%29.98 "Hg10 mi
Weather by CustomWeather, © 2015

See weather overviewHow to use our weather pages